Atlanta Dekalb, GA

6:47 PM EST on December 15, 2019 (GMT -0500)
Dekalb-Peachtree

Weather History for KPDK - November, 2019

Change the Weather History Date:

Tuesday, November 19, 2019

  Actual Average Record
Temperature  
Mean Temperature 52 °F 52 °F  
Max Temperature 60 °F 62 °F 71 °F (2001)
Min Temperature 43 °F 41 °F 19 °F (2014)
Degree Days  
Heating Degree Days 14 13  
Month to date heating degree days 320 208  
Since 1 July heating degree days 407 360  
Growing Degree Days 2 (Base 50)    
Moisture  
Dew Point 37 °F    
Average Humidity 63    
Maximum Humidity 80    
Minimum Humidity 42    
Precipitation  
Precipitation 0.00 in 0.13 in 1.41 in (2003)
Month to date precipitation 1.51 2.60  
Year to date precipitation 42.71 47.19  
Snow  
Snow 0.00 in - - ()
Month to date snowfall 0.0  
Since 1 July snowfall 0.0  
Since 1 September snowfall 0.0  
Snow Depth 0.00 in    
Sea Level Pressure  
Sea Level Pressure 29.89 in    
Wind  
Wind Speed 6 mph ()    
Max Wind Speed 14 mph    
Max Gust Speed 19 mph    
Visibility 10.0 miles    
Events      
T = Trace of Precipitation, MM = Missing Value Source: Averaged Metar Reports

Daily Weather History Graph

Daily Weather History Graph

Search for Another Location

Airport or City:

Astronomy

Nov. 19, 2019 Rise Set
Actual Time 7:13 AM EST 5:31 PM EST
Civil Twilight 6:46 AM EST 5:58 PM EST
Nautical Twilight 6:15 AM EST 6:28 PM EST
Astronomical Twilight 5:46 AM EST 6:58 PM EST
Moon No Moon Rise 1:24 PM EST (11/19)
Length of Visible Light 11h 12m
Length of Day
10h 18m
Waning Gibbous, 52% of the Moon is Illuminated
Nov 19
Waning Gibbous
Nov 19
Last Quarter
Nov 26
New
Dec 4
First Quarter
Dec 12
Full

Hourly Weather History & Observations

Time (EST) Temp. Windchill Dew Point Humidity Pressure Visibility Wind Dir Wind Speed Gust Speed Precip Events Conditions
12:53 AM 46.0 °F 44.8 °F 37.0 °F 71% 29.81 in 10.0 mi Variable 3.5 mph - N/A   Clear
1:53 AM 46.0 °F 43.1 °F 37.0 °F 71% 29.81 in 10.0 mi West 5.8 mph - N/A   Clear
2:53 AM 46.0 °F 43.1 °F 37.0 °F 71% 29.81 in 10.0 mi West 5.8 mph - N/A   Mostly Cloudy
3:53 AM 45.0 °F 40.6 °F 37.0 °F 74% 29.83 in 10.0 mi WNW 8.1 mph - N/A   Mostly Cloudy
4:53 AM 44.1 °F 40.8 °F 36.0 °F 73% 29.84 in 10.0 mi West 5.8 mph - N/A   Overcast
5:53 AM 44.1 °F 39.0 °F 36.0 °F 73% 29.85 in 10.0 mi West 9.2 mph - N/A   Overcast
6:53 AM 44.1 °F 39.5 °F 36.0 °F 73% 29.87 in 10.0 mi WNW 8.1 mph - N/A   Scattered Clouds
7:53 AM 44.1 °F 39.0 °F 36.0 °F 73% 29.89 in 10.0 mi WNW 9.2 mph - N/A   Overcast
8:53 AM 46.0 °F 41.9 °F 35.1 °F 66% 29.91 in 10.0 mi NW 8.1 mph - N/A   Overcast
9:53 AM 48.0 °F - 36.0 °F 63% 29.92 in 10.0 mi WNW 8.1 mph - N/A   Mostly Cloudy
10:53 AM 50.0 °F - 36.0 °F 59% 29.92 in 10.0 mi WNW 6.9 mph - N/A   Overcast
11:53 AM 54.0 °F - 37.0 °F 53% 29.90 in 10.0 mi WNW 8.1 mph - N/A   Mostly Cloudy
12:53 PM 57.0 °F - 37.0 °F 47% 29.88 in 10.0 mi West 8.1 mph - N/A   Clear
2:53 PM 59.0 °F - 37.0 °F 44% 29.85 in 10.0 mi Variable 5.8 mph - N/A   Clear
3:53 PM 60.1 °F - 37.9 °F 44% 29.86 in 10.0 mi SW 11.5 mph - N/A   Clear
4:53 PM 60.1 °F - 37.0 °F 42% 29.88 in 10.0 mi WSW 6.9 mph - N/A   Clear
5:53 PM 55.9 °F - 37.9 °F 51% 29.91 in 10.0 mi WSW 4.6 mph - N/A   Partly Cloudy
6:53 PM 54.0 °F - 37.9 °F 55% 29.93 in 10.0 mi West 4.6 mph - N/A   Clear
8:53 PM 50.0 °F - 39.0 °F 66% 29.97 in 10.0 mi WSW 3.5 mph - N/A   Clear
9:53 PM 48.0 °F - 39.0 °F 71% 29.97 in 10.0 mi SW 4.6 mph - N/A   Clear
10:53 PM 48.0 °F - 39.9 °F 74% 29.97 in 10.0 mi West 4.6 mph - N/A   Clear
11:53 PM 45.0 °F 41.8 °F 39.0 °F 80% 29.98 in 10.0 mi WSW 5.8 mph - N/A   Clear